Overview Statistics Trail Chart Weather Telemetry Raw packets
 

This is the latest recevied weather packets stored in our database for station/object WX6HNX-12. If no packets are shown the sender has not sent any weather packets the latest 10 day(s).

<< 16 17 18 19 20 21 22 >>
Time Temp. Humidity Pressure Rain* Wind** Luminosity Snow
1777688016 30° C 26% 1009.3 hPa 0 mm - - -
1777687417 30° C 26% 1009.3 hPa 0 mm - - -
1777687116 30.56° C 25% 1009.1 hPa 0 mm - - -
1777686816 30.56° C 24% 1009.2 hPa 0 mm - - -
1777686517 31.11° C 24% 1009.3 hPa 0 mm - - -
1777686217 31.11° C 24% 1009.2 hPa 0 mm - - -
1777685917 31.11° C 23% 1009.3 hPa 0 mm - - -
1777685617 31.11° C 23% 1009.2 hPa 0 mm - - -
1777685316 31.67° C 22% 1009.1 hPa 0 mm - - -
1777684727 31.67° C 23% 1009.2 hPa 0 mm - - -
1777684430 31.67° C 23% 1009.1 hPa 0 mm - - -
1777684127 31.67° C 22% 1009.1 hPa 0 mm - - -
1777683827 31.67° C 22% 1009.1 hPa 0 mm - - -
1777683527 32.22° C 22% 1009.2 hPa 0 mm - - -
1777683227 31.67° C 21% 1009.1 hPa 0 mm - - -
1777682929 31.67° C 20% 1009.2 hPa 0 mm - - -
1777682627 31.67° C 21% 1009.3 hPa 0 mm - - -
1777682327 32.22° C 20% 1009.3 hPa 0 mm - - -
1777682027 32.22° C 19% 1009.2 hPa 0 mm - - -
1777681727 32.78° C 19% 1009.3 hPa 0 mm - - -
1777681427 32.78° C 19% 1009.3 hPa 0 mm - - -
1777681127 32.78° C 19% 1009.3 hPa 0 mm - - -
1777680827 32.78° C 19% 1009.3 hPa 0 mm - - -
1777680527 32.78° C 18% 1009.3 hPa 0 mm - - -
1777680227 32.78° C 18% 1009.4 hPa 0 mm - - -

* Rain latest hour (hover to see other rain measurements)
** Current wind speed in m/s (hover to see current wind gust speed)